Regional Weather Roundup
Issued by NWS

Home | Current Version | Previous Version | Graphics & Text | Print | Product List | Glossary On
Versions: 1 2 3 4 5 6 7 8 9 10 11 12 13 14 15 16 17 18 19 20 21 22 23 24 25 26 27 28 29 30 31 32 33 34 35 36 37 38 39 40 41 42 43 44 45 46 47 48 49 50
908
ASUS43 KMKX 251400
RWRWI

WISCONSIN REGIONAL WEATHER ROUNDUP
NATIONAL WEATHER SERVICE MILWAUKEE/SULLIVAN WI
900 AM CDT TUE APR 25 2017

NOTE: "FAIR" INDICATES FEW OR NO CLOUDS BELOW 12,000 FEET WITH NO
SIGNIFICANT WEATHER AND/OR OBSTRUCTIONS TO VISIBILITY.

WIZ001-002-006>008-014>016-023>028-251500-
NORTHWEST WISCONSIN

CITY           SKY/WX    TMP DP  RH WIND       PRES   REMARKS
SUPERIOR ARPT  CLOUDY    40  38  94 E9        29.59F WCI  33
ASHLAND        CLOUDY    48  40  73 NE6       29.59R
HAYWARD        CLOUDY    59  34  39 SE10      29.55S
SIREN          CLOUDY    47  43  86 CALM      29.54R
CUMBERLAND     MOSUNNY   57  32  38 SE9       29.54S
RICE LAKE      PTSUNNY   58  34  40 SE7       29.56R
CHETEK         CLOUDY    58  37  44 SE10      29.56R
LADYSMITH      MOSUNNY   61  36  39 S10G16    29.60R
EAU CLAIRE     MOSUNNY   63  34  33 S12       29.54F
MENOMONIE      CLOUDY    63  37  37 E7        29.53F
NEW RICHMOND   CLOUDY    59  35  39 S7        29.52S
OSCEOLA        CLOUDY    59  39  47 SE10      29.55R
$$

WIZ003>005-009-010-017-018-251500-
NORTH CENTRAL WISCONSIN

CITY           SKY/WX    TMP DP  RH WIND       PRES   REMARKS
MANITOWISH WTR PTSUNNY   55  35  47 S12G18    29.61S
ARBOR VITAE    MOSUNNY   57  38  50 SE7       29.62S
WOODRUFF       MOSUNNY   57  38  50 SE7       29.62S
RHINELANDER    PTSUNNY   58  37  45 S9        29.64F
EAGLE RIVER    CLOUDY    55  34  44 S12       29.64F
LAND O LAKES   CLOUDY    54  35  48 SE9       29.66S
PHILLIPS       PTSUNNY   57  36  45 S8G17     29.59R
TOMAHAWK       PTSUNNY   55  36  48 SE9       29.63F
MEDFORD        PTSUNNY   55  37  51 SE12      29.60S
MERRILL        CLOUDY    56  38  52 SE10G17   29.64F
$$

WIZ029-030-035-036-043>047-251500-
CENTRAL WISCONSIN

CITY           SKY/WX    TMP DP  RH WIND       PRES   REMARKS
WAUSAU         PTSUNNY   59  39  47 SE14      29.62F
MOSINEE        PTSUNNY   54  39  58 SE12      29.64F
MARSHFIELD     PTSUNNY   59  38  45 SE12      29.59F
STEVENS POINT  SUNNY     57  39  50 SE10      29.64F
WAUPACA        SUNNY     62  43  50 SE8       29.65F
WAUTOMA        SUNNY     62  44  51 SE10      29.64F
WISC RAPIDS    SUNNY     62  40  44 S9        29.62
CAMP DOUGLAS   NOT AVBL
$$

WIZ011>013-019>022-031-037>040-048>050-251500-
NORTHEAST WISCONSIN

CITY           SKY/WX    TMP DP  RH WIND       PRES   REMARKS
ANTIGO         PTSUNNY   51  38  63 SE10      29.67F
SHAWANO        CLOUDY    58  42  55 SE6       29.69S
OCONTO         MOSUNNY   55  44  64 S14G20    29.70F
STURGEON BAY   MOSUNNY   53  44  71 S21       29.71F
GREEN BAY      MOSUNNY   58  48  69 SE15      29.69F
MANITOWOC      NOT AVBL
APPLETON       MOSUNNY   55  43  62 SE10      29.67S
CLINTONVILLE   MOSUNNY   57  41  54 SE7       29.67F
OSHKOSH        MOSUNNY   60  45  57 S13       29.66F
$$

WIZ032>034-041-042-053>061-251500-
SOUTHWEST WISCONSIN

CITY           SKY/WX    TMP DP  RH WIND       PRES   REMARKS
LA CROSSE      SUNNY     64  38  38 S12       29.57R
SPARTA         SUNNY     64  38  38 S8        29.59R
VIROQUA        SUNNY     60  36  40 S13G18    29.59S
BOSCOBEL       MOSUNNY   64  38  38 S10       29.60S
PRAIRIE DU CHI SUNNY     61  37  40 SE5       29.59S
PLATTEVILLE    SUNNY     60  41  49 S13       29.63R
$$

WIZ056-057-062-063-064-067-068-251500-
SOUTH CENTRAL WISCONSIN

CITY           SKY/WX    TMP DP  RH WIND       PRES   REMARKS
REEDSBURG      SUNNY     61  40  45 SE7       29.61F
BARABOO/DELLS  SUNNY     60  39  46 S13       29.62F
LONE ROCK      NOT AVBL
MINERAL POINT  MOSUNNY   59  39  47 S13       29.62S
MADISON        PTSUNNY   61  42  49 S15       29.63F
MIDDLETON      SUNNY     64  40  42 S14       29.64F
WATERTOWN      SUNNY     60  46  59 SE10G16   29.66F
MONROE         SUNNY     59  41  51 S10       29.64F
JANESVILLE     PTSUNNY   64  45  48 S12G17    29.65F
$$

WIZ051-052-058>065-066-070>072-251500-
SOUTHEAST WISCONSIN

CITY           SKY/WX    TMP DP  RH WIND       PRES   REMARKS
MILWAUKEE      MOSUNNY   60  49  66 S13       29.71F
WAUKESHA       SUNNY     57  46  67 SE9       29.71F
MILWAUKEE/TIMM SUNNY     59  46  63 S9        29.71F
RACINE         SUNNY     55  47  74 S13       29.73S
KENOSHA        SUNNY     61  50  67 S10       29.71S
FOND DU LAC    MOSUNNY   60  45  57 SE12      29.67F
SHEBOYGAN      SUNNY     53  46  77 S14G21    29.71F
WEST BEND      SUNNY     55  45  67 SE9       29.70F
JUNEAU         SUNNY     59  46  61 SE13      29.68F
$$

LSZ147-162-251500-
LAKE SUPERIOR

STATION/POSITION TIME  TEMP    WIND        PRES    WAVE
                       AIR SEA DIR/SP/G            HT/PER
                 (UTC) (F)     (DEG/KT/KT) (MB)    (FT/S)
DEVILS ISLAND    1300   39      50/ 14/ 15 1003.0R
PORT WING        1140   38      20/  8/  9 1002.4R
SAXON HARBOR     1340   42      60/  1/  6 1001.4S
$$

LMZ867-665-643>646-251500-
LAKE MICHIGAN

STATION/POSITION TIME  TEMP    WIND        PRES    WAVE
                       AIR SEA DIR/SP/G            HT/PER
                 (UTC) (F)     (DEG/KT/KT) (MB)    (FT/S)
CHAMBERS ISLAND  1340   54     140/  8/ 12 1006.1F
N MID LAKE BUOY  1250   42 37  120/  8/  8 1008.8F   1/ 3
NORTHPORT PIER   1340   47     150/ 12/ 15 1007.1S
KEWAUNEE LAKESHO 1330   47     180/  9/ 11 1006.8R
SHEBOYGAN LAKESH 1300   46     180/  8/  9 1006.9R
PORT WASHINGTON  1330   49     130/  3/  5 1007.8S
MILWAUKEE LAKESH 1330   47     140/ 12/ 14   N/A
S MID LAKE BUOY  1250   46 41  100/ 12/ 14 1007.4S   1/ 3
KENOSHA   LAKESH 1300   48     170/ 13/ 17 1006.4
$$

TC  - TEMPERATURE IN CELSIUS
VSB - VISIBILITY IN STATUTE MILES
WCI - WIND CHILL INDEX
HX  - HEAT INDEX





USA.gov is the U.S. government's official web portal to all federal, state and local government web resources and services.